SR5NLK-1 Weather Reports


time (UTC)temp
C
wind
direction
speed
KPH
gust
KPH
rain 1hr
cm
rain 24hr
cm
rain mn
cm
humidity
%
barometer
mb
20260831024950 16 135 3.2 3.2 0.00 0.00 0.00 78 1048.7
20260831024849 16 135 3.2 3.2 0.00 0.00 0.00 78 1027.1
20260831024450 16 112 1.6 3.2 0.00 0.00 0.00 78 1053.2
20260831023951 16 135 3.2 4.8 0.00 0.00 0.00 78 1068.9
20260831023450 16 112 0.0 3.2 0.00 0.00 0.00 77 1033.5
20260831022950 16 112 0.0 0.0 0.00 0.00 0.00 77 1028.8
20260831022450 16 67 0.0 0.0 0.00 0.00 0.00 77 1081.5
20260831021950 16 112 0.0 0.0 0.00 0.00 0.00 77 1069.0
20260831021549 16 112 0.0 0.0 0.00 0.00 0.00 76 1053.2
20260831021450 16 112 0.0 0.0 0.00 0.00 0.00 76 1089.3
20260831020950 16 112 0.0 0.0 0.00 0.00 0.00 76 1072.1
20260831020450 16 112 0.0 0.0 0.00 0.00 0.00 76 1084.7
20260831015950 16 45 0.0 1.6 0.00 0.00 0.00 75 998.0
20260831015450 16 90 1.6 3.2 0.00 0.00 0.00 75 1078.4
20260831014950 16 90 1.6 1.6 0.00 0.00 0.00 75 1081.5
20260831014450 17 157 0.0 3.2 0.00 0.00 0.00 75 1027.2
20260831014249 17 135 0.0 3.2 0.00 0.00 0.00 75 1058.1
20260831013950 17 180 1.6 3.2 0.00 0.00 0.00 75 1078.4
20260831013450 17 225 0.0 1.6 0.00 0.00 0.00 75 1065.8
20260831013021 17 225 0.0 0.0 0.00 0.00 0.00 74 1083.1
20260831012950 17 225 0.0 0.0 0.00 0.00 0.00 74 1083.1
20260831012450 17 67 0.0 0.0 0.00 0.00 0.00 74 1062.7
20260831011950 17 45 0.0 0.0 0.00 0.00 0.00 74 1078.4
20260831011450 17 45 0.0 0.0 0.00 0.00 0.00 74 1065.8
20260831010949 17 202 0.0 3.2 0.00 0.00 0.00 73 1046.9
20260831010450 17 157 0.0 1.6 0.00 0.00 0.00 73 1084.5
20260831005950 17 157 0.0 0.0 0.00 0.00 0.00 73 1069.0
20260831005450 17 180 0.0 3.2 0.00 0.00 0.00 72 1084.6
20260831004950 17 225 0.0 3.2 0.00 0.00 0.00 72 1028.8
20260831004451 17 202 0.0 1.6 0.00 0.00 0.00 71 1059.5
20260831003950 17 180 0.0 1.6 0.00 0.00 0.00 71 1038.2
20260831003650 17 180 0.0 1.6 0.00 0.00 0.00 71 1067.4
20260831003451 17 157 0.0 3.2 0.00 0.00 0.00 71 1056.4
20260831002950 17 180 3.2 3.2 0.00 0.00 0.00 70 1076.8
20260831002450 17 202 0.0 3.2 0.00 0.00 0.00 70 1062.7
20260831001950 17 135 1.6 3.2 0.00 0.00 0.00 70 1072.1
20260831001450 17 157 0.0 0.0 0.00 0.00 0.00 69 1047.6
20260831000950 18 135 0.0 3.2 0.00 0.00 0.00 69 1080.4
20260831000450 18 180 0.0 3.2 0.00 0.00 0.00 69 1036.6
20260831000349 18 202 0.0 3.2 0.00 0.00 0.00 68 991.0
20260830235950 18 180 1.6 6.4 0.00 0.00 0.00 68 1075.2
20260830235450 18 157 0.0 6.4 0.00 0.00 0.00 68 1065.8
20260830234950 18 180 4.8 8.0 0.00 0.00 0.00 68 1067.4
20260830234450 18 180 3.2 8.0 0.00 0.00 0.00 68 1062.7
20260830233950 18 180 3.2 9.7 0.00 0.00 0.00 68 1062.7
20260830233450 18 180 6.4 11.3 0.00 0.00 0.00 67 1072.1
20260830233049 18 157 1.6 12.9 0.00 0.00 0.00 67 1076.8
20260830232950 18 225 6.4 12.9 0.00 0.00 0.00 67 1084.6
20260830232450 18 180 9.7 9.7 0.00 0.00 0.00 67 1069.0
20260830231950 18 202 9.7 11.3 0.00 0.00 0.00 67 1067.4
20260830231450 18 157 3.2 9.7 0.00 0.00 0.00 66 1062.7
20260830230950 18 202 3.2 9.7 0.00 0.00 0.00 66 1075.3
20260830230450 18 202 4.8 9.7 0.00 0.00 0.00 66 1073.6
20260830225950 18 202 8.0 9.7 0.00 0.00 0.00 65 1072.1
20260830225750 18 202 1.6 9.7 0.00 0.00 0.00 65 1069.0
20260830225450 18 180 3.2 8.0 0.00 0.00 0.00 65 1065.8
20260830224951 18 180 3.2 8.0 0.00 0.00 0.00 65 1062.7
20260830224451 19 225 4.8 8.0 0.00 0.00 0.00 64 1072.1
20260830223951 19 202 3.2 11.3 0.00 0.00 0.00 64 1071.4
20260830223451 19 180 3.2 6.4 0.00 0.00 0.00 64 1043.8
20260830222951 19 180 3.2 9.7 0.00 0.00 0.00 63 1047.9
20260830222450 19 180 6.4 9.7 0.00 0.00 0.00 63 1051.8
20260830221951 20 135 4.8 8.0 0.00 0.00 0.00 63 1068.9
20260830221451 20 157 8.0 9.7 0.00 0.00 0.00 63 1073.7
20260830220951 20 180 6.4 6.4 0.00 0.00 0.00 63 1067.4
20260830220451 20 202 1.6 9.7 0.00 0.00 0.00 62 1056.4
20260830215951 20 202 4.8 6.4 0.00 0.00 0.00 62 1076.8
20260830215451 20 180 3.2 9.7 0.00 0.00 0.00 62 1036.6
20260830215150 20 202 3.2 9.7 0.00 0.00 0.00 62 1059.5
20260830214951 20 180 4.8 8.0 0.00 0.00 0.00 62 1078.4
20260830214451 20 180 6.4 8.0 0.00 0.00 0.00 62 1064.8
20260830213951 20 202 6.4 9.7 0.00 0.00 0.00 61 1070.6
20260830213451 20 180 0.0 9.7 0.00 0.00 0.00 61 1028.7
20260830212951 20 157 9.7 9.7 0.00 0.00 0.00 61 1072.1
20260830212451 20 180 3.2 8.0 0.00 0.00 0.00 60 986.1
20260830211951 20 157 3.2 9.7 0.00 0.00 0.00 60 1081.5
20260830211850 20 202 4.8 9.7 0.00 0.00 0.00 60 1072.1
20260830211451 20 157 4.8 9.7 0.00 0.00 0.00 60 1081.5
20260830210951 20 157 6.4 8.0 0.00 0.00 0.00 60 1064.2
20260830210451 20 180 4.8 6.4 0.00 0.00 0.00 60 1069.0
20260830205951 20 157 3.2 6.4 0.00 0.00 0.00 60 1056.3
20260830205451 20 157 1.6 4.8 0.00 0.00 0.00 60 1072.1
20260830204951 20 135 4.8 4.8 0.00 0.00 0.00 60 1056.4
20260830204550 20 135 1.6 4.8 0.00 0.00 0.00 60 1020.8
20260830204451 20 135 0.0 4.8 0.00 0.00 0.00 60 986.9
20260830203951 20 157 3.2 3.2 0.00 0.00 0.00 60 1065.8
20260830203451 20 157 1.6 3.2 0.00 0.00 0.00 60 1079.9
20260830202951 21 135 1.6 4.8 0.00 0.00 0.00 59 1022.5
20260830202451 21 135 0.0 4.8 0.00 0.00 0.00 60 996.4
20260830201951 21 112 0.0 4.8 0.00 0.00 0.00 59 1065.8
20260830201451 21 135 4.8 4.8 0.00 0.00 0.00 60 1050.1
20260830201250 21 135 1.6 4.8 0.00 0.00 0.00 60 1069.0
20260830200951 21 135 4.8 6.4 0.00 0.00 0.00 60 1046.9
20260830200451 21 157 3.2 4.8 0.00 0.00 0.00 60 1059.5
20260830195951 21 112 3.2 4.8 0.00 0.00 0.00 60 1075.2
20260830195451 20 135 0.0 6.4 0.00 0.00 0.00 60 1068.9
20260830195027 20 135 3.2 4.8 0.00 0.00 0.00 59 1065.8
20260830194951 20 135 3.2 4.8 0.00 0.00 0.00 59 1065.8
20260830194451 20 135 3.2 3.2 0.00 0.00 0.00 59 1053.3
20260830193950 20 90 3.2 4.8 0.00 0.00 0.00 59 1038.2
20260830193451 21 135 3.2 3.2 0.00 0.00 0.00 58 1062.7
20260830192951 21 135 3.2 3.2 0.00 0.00 0.00 58 1059.5
20260830192451 21 112 3.2 3.2 0.00 0.00 0.00 58 1031.9
20260830191951 21 112 1.6 3.2 0.00 0.00 0.00 58 1069.0
20260830191451 21 112 0.0 3.2 0.00 0.00 0.00 58 1030.4
20260830190951 21 135 0.0 3.2 0.00 0.00 0.00 58 1084.6
20260830190650 21 112 3.2 3.2 0.00 0.00 0.00 57 1081.5
20260830190451 21 90 3.2 3.2 0.00 0.00 0.00 57 1062.7
20260830185951 21 135 1.6 1.6 0.00 0.00 0.00 56 1067.5
20260830185451 21 90 1.6 3.2 0.00 0.00 0.00 56 1059.5
20260830184951 21 135 3.2 3.2 0.00 0.00 0.00 55 1050.1
20260830184451 21 112 3.2 3.2 0.00 0.00 0.00 55 1062.6
20260830183951 21 90 0.0 3.2 0.00 0.00 0.00 54 1028.8
20260830183451 22 135 1.6 3.2 0.00 0.00 0.00 53 1083.1
20260830183350 22 112 0.0 3.2 0.00 0.00 0.00 53 1081.5
20260830182951 22 112 0.0 1.6 0.00 0.00 0.00 53 1041.3
20260830182451 22 90 0.0 1.6 0.00 0.00 0.00 52 1064.3
20260830181951 22 112 0.0 1.6 0.00 0.00 0.00 51 1075.2
20260830181451 22 135 0.0 3.2 0.00 0.00 0.00 50 1051.4
20260830180951 23 90 0.0 3.2 0.00 0.00 0.00 49 1035.0
20260830180451 23 135 0.0 1.6 0.00 0.00 0.00 48 1054.6
20260830180050 23 112 1.6 3.2 0.00 0.00 0.00 48 1084.7
20260830175951 23 157 1.6 3.2 0.00 0.00 0.00 48 1075.2
20260830175451 23 112 3.2 4.8 0.00 0.00 0.00 47 1069.0
20260830174951 23 67 0.0 3.2 0.00 0.00 0.00 47 1068.9
20260830174451 24 112 0.0 3.2 0.00 0.00 0.00 46 1010.5
20260830173951 24 157 0.0 3.2 0.00 0.00 0.00 46 1083.1
20260830173451 24 112 3.2 4.8 0.00 0.00 0.00 45 1071.0
20260830172951 25 135 3.2 8.0 0.00 0.00 0.00 45 1067.4
20260830172750 25 112 3.2 8.0 0.00 0.00 0.00 45 1076.8
20260830172451 25 135 3.2 6.4 0.00 0.00 0.00 45 1065.7
20260830171951 25 180 0.0 6.4 0.00 0.00 0.00 44 1073.8
20260830171451 25 157 1.6 6.4 0.00 0.00 0.00 44 1052.4
20260830170951 25 112 0.0 4.8 0.00 0.00 0.00 44 1062.7
20260830170451 26 135 3.2 6.4 0.00 0.00 0.00 43 1045.0
20260830165951 26 112 3.2 6.4 0.00 0.00 0.00 43 1043.7
20260830165450 26 157 4.8 6.4 0.00 0.00 0.00 43 1059.5
20260830164951 26 135 4.8 4.8 0.00 0.00 0.00 42 1086.4
20260830164451 26 157 3.2 4.8 0.00 0.00 0.00 42 1062.7
20260830163951 26 157 3.2 6.4 0.00 0.00 0.00 41 1075.2
20260830163451 26 135 4.8 6.4 0.00 0.00 0.00 41 1069.0
20260830162951 27 157 4.8 6.4 0.00 0.00 0.00 40 1072.1
20260830162451 27 157 4.8 8.0 0.00 0.00 0.00 40 1075.2
20260830162150 27 157 3.2 8.0 0.00 0.00 0.00 39 1069.0
20260830161951 27 180 3.2 9.7 0.00 0.00 0.00 39 1068.9
20260830161451 27 157 3.2 8.0 0.00 0.00 0.00 39 1072.1
20260830160951 28 180 3.2 9.7 0.00 0.00 0.00 38 1062.7
20260830160451 28 157 4.8 9.7 0.00 0.00 0.00 38 1073.8
20260830155951 28 135 1.6 8.0 0.00 0.00 0.00 38 1065.8
20260830155451 28 157 6.4 8.0 0.00 0.00 0.00 37 1062.7
20260830154951 28 180 3.2 9.7 0.00 0.00 0.00 37 1062.7
20260830154850 28 202 8.0 9.7 0.00 0.00 0.00 37 1069.0
20260830154451 28 112 8.0 8.0 0.00 0.00 0.00 37 1062.7
20260830153951 28 180 4.8 9.7 0.00 0.00 0.00 37 1065.8
20260830153451 28 225 4.8 11.3 0.00 0.00 0.00 36 1065.8
20260830152951 30 157 4.8 19.3 0.00 0.00 0.00 35 1062.7
20260830152451 30 157 3.2 12.9 0.00 0.00 0.00 34 1061.1
20260830151951 31 112 4.8 16.1 0.00 0.00 0.00 34 1059.5
20260830151550 31 202 9.7 20.9 0.00 0.00 0.00 34 1087.8
20260830151451 31 180 9.7 20.9 0.00 0.00 0.00 34 1075.2
20260830150951 31 135 6.4 19.3 0.00 0.00 0.00 34 1062.6
20260830150451 31 180 19.3 19.3 0.00 0.00 0.00 35 1089.4
20260830145951 30 202 3.2 19.3 0.00 0.00 0.00 34 1069.0
20260830145451 30 247 6.4 17.7 0.00 0.00 0.00 34 1059.5
20260830144951 30 202 8.0 25.7 0.00 0.00 0.00 34 1065.8
20260830144451 31 180 12.9 22.5 0.00 0.00 0.00 34 1069.0
20260830144250 31 180 19.3 22.5 0.00 0.00 0.00 34 1065.8
20260830143951 31 135 14.5 17.7 0.00 0.00 0.00 34 1044.5
20260830143451 31 135 6.4 17.7 0.00 0.00 0.00 34 1062.7
20260830142952 31 157 8.0 17.7 0.00 0.00 0.00 34 1075.2
20260830142451 31 202 12.9 17.7 0.00 0.00 0.00 35 1059.5
20260830141951 30 225 14.5 14.5 0.00 0.00 0.00 36 1069.0
20260830141451 30 135 3.2 17.7 0.00 0.00 0.00 36 1056.4
20260830140950 30 157 12.9 17.7 0.00 0.00 0.00 36 1086.2
20260830140451 30 202 6.4 19.3 0.00 0.00 0.00 36 1073.8
20260830135952 30 157 17.7 20.9 0.00 0.00 0.00 35 1072.0
20260830135451 30 180 6.4 24.1 0.00 0.00 0.00 36 1068.9
20260830134952 30 202 12.9 22.5 0.00 0.00 0.00 36 1056.4
20260830134452 30 180 4.8 16.1 0.00 0.00 0.00 36 1062.7
20260830133952 30 225 1.6 20.9 0.00 0.00 0.00 36 1073.7
20260830133651 30 180 17.7 17.7 0.00 0.00 0.00 36 1072.9
20260830133452 30 202 8.0 16.1 0.00 0.00 0.00 36 991.7
20260830132952 30 270 1.6 22.5 0.00 0.00 0.00 36 1065.8
20260830132452 30 180 4.8 17.7 0.00 0.00 0.00 37 1080.0
20260830131952 30 247 17.7 20.9 0.00 0.00 0.00 37 1017.3
20260830131452 30 135 8.0 22.5 0.00 0.00 0.00 36 1065.8
20260830130952 30 202 3.2 17.7 0.00 0.00 0.00 37 1059.5
20260830130452 30 157 4.8 16.1 0.00 0.00 0.00 37 1025.5
20260830130351 30 180 12.9 16.1 0.00 0.00 0.00 37 1053.2
20260830125952 30 135 9.7 12.9 0.00 0.00 0.00 37 1069.0
20260830125452 29 180 8.0 11.3 0.00 0.00 0.00 38 1036.5
20260830124952 29 157 6.4 19.3 0.00 0.00 0.00 38 1062.6
20260830124452 29 157 19.3 22.5 0.00 0.00 0.00 38 1082.4
20260830123952 29 180 4.8 17.7 0.00 0.00 0.00 38 1021.4
20260830123452 29 247 9.7 24.1 0.00 0.00 0.00 38 1081.5
20260830123051 28 202 17.7 22.5 0.00 0.00 0.00 38 1062.8
20260830122952 28 157 4.8 24.1 0.00 0.00 0.00 38 1081.6
20260830122452 29 202 9.7 19.3 0.00 0.00 0.00 39 1026.3
20260830121952 29 135 6.4 27.4 0.00 0.00 0.00 39 1059.5
20260830121452 29 180 12.9 16.1 0.00 0.00 0.00 39 1058.6
20260830121023 29 180 16.1 19.3 0.00 0.00 0.00 39 1034.7
20260830120952 29 180 16.1 19.3 0.00 0.00 0.00 39 1034.7
20260830120452 29 180 9.7 19.3 0.00 0.00 0.00 39 1086.9
20260830115952 28 180 4.8 14.5 0.00 0.00 0.00 39 1011.8
20260830115751 28 180 12.9 14.5 0.00 0.00 0.00 39 1065.8
20260830115452 28 157 3.2 17.7 0.00 0.00 0.00 39 1069.7
20260830114952 28 202 17.7 22.5 0.00 0.00 0.00 39 1049.3
20260830114452 28 247 14.5 20.9 0.00 0.00 0.00 39 991.7
20260830113952 28 225 9.7 19.3 0.00 0.00 0.00 39 1012.0
20260830112952 28 225 9.7 19.3 0.00 0.00 0.00 39 997.8
20260830112451 28 157 19.3 24.1 0.00 0.00 0.00 38 1077.4
20260830112350 29 157 19.3 27.4 0.00 0.00 0.00 38 1069.0
20260830111952 29 157 19.3 27.4 0.00 0.00 0.00 38 1069.0
20260830111452 30 112 9.7 17.7 0.00 0.00 0.00 38 1043.8
20260830111107 30 157 11.3 17.7 0.00 0.00 0.00 38 1066.2
20260830110952 30 157 9.7 29.0 0.00 0.00 0.00 38 1042.3
20260830110452 30 270 4.8 22.5 0.00 0.00 0.00 38 1085.5
20260830105952 30 157 11.3 17.7 0.00 0.00 0.00 38 1066.2
20260830105151 30 225 9.7 17.7 0.00 0.00 0.00 38 994.6
20260830105129 30 202 9.7 17.7 0.00 0.00 0.00 38 1039.2
20260830104952 30 202 9.7 17.7 0.00 0.00 0.00 38 1039.2
20260830104452 30 135 6.4 16.1 0.00 0.00 0.00 39 1075.0
20260830103952 29 202 11.3 14.5 0.00 0.00 0.00 40 1074.4
20260830103452 28 135 4.8 17.7 0.00 0.00 0.00 40 1083.6
20260830102952 28 135 16.1 20.9 0.00 0.00 0.00 40 1055.9
20260830102452 28 180 20.9 20.9 0.00 0.00 0.00 40 1022.5
20260830101952 29 202 6.4 22.5 0.00 0.00 0.00 40 1041.4
20260830101851 29 292 6.4 24.1 0.00 0.00 0.00 40 1031.9
20260830101452 29 135 12.9 25.7 0.00 0.00 0.00 41 1035.9
20260830101024 29 135 8.0 14.5 0.00 0.00 0.00 41 996.4
20260830100952 29 135 8.0 14.5 0.00 0.00 0.00 41 996.4
20260830100712 28 90 9.7 16.1 0.00 0.20 0.00 42 1060.1
20260830100638 28 90 9.7 16.1 0.00 0.20 0.00 42 1060.1
20260830100452 29 157 6.4 17.7 0.00 0.00 0.00 41 1035.2
20260830095952 28 90 9.7 16.1 0.00 0.20 0.00 42 1060.1
20260830095553 28 112 12.9 19.3 0.00 0.20 0.00 42 1102.6
20260830095452 28 112 12.9 19.3 0.00 0.20 0.00 42 1102.6
20260830094952 28 157 19.3 19.3 0.00 0.20 0.00 42 1070.9
20260830094918 28 157 6.4 17.7 0.00 0.20 0.00 43 1040.6
20260830094551 28 157 12.9 17.7 0.00 0.20 0.00 43 1083.2
20260830094452 28 157 6.4 17.7 0.00 0.20 0.00 43 1040.6
20260830093952 28 225 11.3 16.1 0.00 0.20 0.00 43 1069.0
20260830093525 28 202 6.4 22.5 0.00 0.20 0.00 43 1069.0
20260830093452 28 202 6.4 22.5 0.00 0.20 0.00 43 1069.0
20260830093032 28 247 4.8 27.4 0.00 0.20 0.00 43 1086.1
20260830092952 28 247 4.8 27.4 0.00 0.20 0.00 43 1086.1
20260830092452 28 112 19.3 19.3 0.00 0.20 0.00 44 990.1
20260830091523 28 157 1.6 12.9 0.00 0.20 0.00 45 1082.1
20260830091452 28 157 1.6 12.9 0.00 0.20 0.00 45 1082.1
20260830091251 28 135 1.6 12.9 0.00 0.20 0.00 45 1056.5
20260830091023 28 135 1.6 12.9 0.00 0.20 0.00 45 1071.9
20260830090952 28 135 1.6 12.9 0.00 0.20 0.00 45 1071.9
20260830090452 28 157 12.9 17.7 0.00 0.20 0.00 44 1075.3
20260830085952 28 180 17.7 17.7 0.00 0.30 0.00 44 1080.3
20260830085530 28 157 8.0 12.9 0.00 0.30 0.00 44 1027.0
20260830085452 28 157 8.0 12.9 0.00 0.30 0.00 44 1027.0
20260830084952 28 180 9.7 16.1 0.00 0.30 0.00 44 1072.1
20260830084525 28 157 1.6 6.4 0.00 0.30 0.00 44 1047.6
20260830084452 28 157 1.6 6.4 0.00 0.30 0.00 44 1047.6
20260830084026 28 135 6.4 8.0 0.00 0.30 0.00 43 1065.8
20260830083951 28 135 6.4 8.0 0.00 0.30 0.00 43 1065.8
20260830083452 29 112 3.2 12.9 0.00 0.30 0.00 43 1074.1
20260830082952 28 225 3.2 9.7 0.00 0.30 0.00 45 1048.7
20260830082452 27 157 4.8 4.8 0.00 0.30 0.00 46 1045.3
20260830082026 27 180 3.2 12.9 0.00 0.30 0.00 45 1062.7
20260830081952 27 180 3.2 12.9 0.00 0.30 0.00 45 1062.7
20260830081529 27 180 1.6 6.4 0.00 0.30 0.00 45 1046.9
20260830081452 27 180 1.6 6.4 0.00 0.30 0.00 45 1046.9
20260830081025 27 225 1.6 11.3 0.00 0.30 0.00 43 1062.7
20260830080952 27 225 1.6 11.3 0.00 0.30 0.00 43 1062.7
20260830080651 28 135 6.4 12.9 0.00 0.30 0.00 41 1018.2
20260830080546 28 112 9.7 12.9 0.00 0.30 0.00 42 1024.1
20260830080452 28 112 9.7 12.9 0.00 0.30 0.00 42 1024.1
20260830075952 29 157 9.7 11.3 0.00 0.36 0.00 41 1062.7
20260830075539 30 202 1.6 9.7 0.00 0.36 0.00 41 993.5
20260830075452 30 202 1.6 9.7 0.00 0.36 0.00 41 993.5
20260830075136 30 157 1.6 12.9 0.00 0.36 0.00 41 1081.5
20260830074952 30 157 1.6 12.9 0.00 0.36 0.00 41 1081.5
20260830074840 31 180 1.6 9.7 0.00 0.36 0.00 40 1039.9
20260830074835 31 157 9.7 11.3 0.00 0.36 0.00 40 1080.0
20260830074734 31 180 1.6 9.7 0.00 0.36 0.00 40 1039.9
20260830074556 30 202 3.2 9.7 0.00 0.36 0.00 42 1062.7
20260830074519 31 157 4.8 8.0 0.00 0.36 0.00 41 1083.3
20260830074452 31 180 1.6 9.7 0.00 0.36 0.00 40 1039.9
20260830074328 31 157 4.8 8.0 0.00 0.36 0.00 41 1083.3
20260830074249 32 112 0.0 8.0 0.00 0.36 0.00 41 1041.7
20260830074230 31 202 3.2 4.8 0.00 0.36 0.00 42 1011.4
20260830074144 31 180 0.0 3.2 0.00 0.46 0.00 43 1059.5
20260830074128 31 112 3.2 4.8 0.00 0.46 0.00 43 1043.8
20260830073952 31 157 9.7 11.3 0.00 0.36 0.00 40 1080.0
20260830073452 31 157 3.2 12.9 0.00 0.36 0.00 41 1071.9
20260830073351 31 202 3.2 12.9 0.00 0.36 0.00 41 1068.9
20260830073158 32 180 6.4 6.4 0.00 0.46 0.00 42 1066.8
20260830073100 32 180 6.4 6.4 0.00 0.46 0.00 42 1066.8
20260830072952 31 180 1.6 11.3 0.00 0.36 0.00 42 1053.2
20260830072836 32 202 0.0 4.8 0.00 0.46 0.00 44 1076.6
20260830072453 30 202 3.2 9.7 0.00 0.36 0.00 42 1062.7
20260830072352 30 225 1.6 6.4 0.00 0.46 0.00 47 1043.7
20260830071952 30 135 3.2 8.0 0.00 0.36 0.00 42 1065.8
20260830071644 30 135 1.6 3.2 0.00 0.46 0.00 48 1059.9
20260830071524 30 135 1.6 3.2 0.00 0.46 0.00 48 1059.9
20260830071452 31 157 4.8 8.0 0.00 0.36 0.00 41 1083.3
20260830070952 32 112 0.0 8.0 0.00 0.36 0.00 41 1041.7
20260830070524 31 202 3.2 4.8 0.00 0.36 0.00 42 1011.4
20260830070452 31 202 3.2 4.8 0.00 0.36 0.00 42 1011.4
20260830070051 31 157 3.2 3.2 0.00 0.36 0.00 42 1081.5
20260830065952 31 180 1.6 3.2 0.00 0.46 0.00 42 1063.8
20260830065523 31 180 0.0 3.2 0.00 0.46 0.00 43 1059.5
20260830065452 31 180 0.0 3.2 0.00 0.46 0.00 43 1059.5
20260830064952 31 112 3.2 4.8 0.00 0.46 0.00 43 1043.8
20260830064452 31 180 0.0 6.4 0.00 0.46 0.00 42 1065.8
20260830063952 32 180 6.4 6.4 0.00 0.46 0.00 42 1066.8
20260830063452 32 180 1.6 3.2 0.00 0.46 0.00 44 1059.9
20260830062952 32 202 0.0 4.8 0.00 0.46 0.00 44 1076.6
20260830062751 31 90 0.0 4.8 0.00 0.46 0.00 45 1033.8
20260830062452 31 135 3.2 3.2 0.00 0.46 0.00 46 1004.3
20260830061952 30 225 1.6 6.4 0.00 0.46 0.00 47 1043.7
20260830061523 30 135 1.6 3.2 0.00 0.46 0.00 48 1059.9
20260830061452 30 135 1.6 3.2 0.00 0.46 0.00 48 1059.9
20260830060952 30 180 0.0 1.6 0.00 0.46 0.00 49 1062.6
20260830060729 30 135 0.0 3.2 0.00 0.46 0.00 49 1017.3
20260830060647 30 135 0.0 3.2 0.00 0.46 0.00 49 1017.3
20260830060452 30 135 0.0 3.2 0.00 0.46 0.00 49 1017.3
20260830055952 29 157 0.0 4.8 0.00 0.46 0.00 51 1053.8
20260830055526 28 157 1.6 3.2 0.00 0.46 0.00 54 1022.5
20260830055451 28 157 1.6 3.2 0.00 0.46 0.00 54 1022.5
20260830055031 27 202 1.6 3.2 0.00 0.46 0.00 56 1026.3
20260830054952 27 202 1.6 3.2 0.00 0.46 0.00 56 1026.3
20260830054636 27 157 1.6 8.0 0.00 0.46 0.00 58 1053.2
20260830054544 27 157 1.6 8.0 0.00 0.46 0.00 58 1053.2
20260830054452 27 157 1.6 8.0 0.00 0.46 0.00 58 1053.2
20260830053952 26 157 3.2 8.0 0.00 0.46 0.00 62 1043.8
20260830053617 25 202 1.6 6.4 0.00 0.46 0.00 64 1040.6
20260830053539 25 202 1.6 6.4 0.00 0.46 0.00 64 1040.6
20260830053452 25 202 1.6 6.4 0.00 0.46 0.00 64 1040.6
20260830052952 24 157 1.6 4.8 0.00 0.46 0.00 68 1061.2
20260830052703 23 180 1.6 8.0 0.00 0.46 0.00 70 1072.1
20260830052600 23 180 1.6 8.0 0.00 0.46 0.00 70 1072.1
20260830052452 23 180 1.6 8.0 0.00 0.46 0.00 70 1072.1
20260830052151 23 180 3.2 6.4 0.00 0.46 0.00 71 1022.4
20260830051952 23 135 1.6 4.8 0.00 0.46 0.00 71 993.7
20260830051452 23 135 1.6 3.2 0.00 0.46 0.00 75 1050.1
20260830051110 22 157 1.6 3.2 0.00 0.46 0.00 81 1053.2
20260830050952 22 157 1.6 3.2 0.00 0.46 0.00 81 1053.2
20260830050452 22 180 0.0 1.6 0.00 0.46 0.00 88 1053.2
20260830045952 21 157 1.6 1.6 0.00 0.46 0.00 92 1050.1
20260830045539 20 112 1.6 1.6 0.00 0.46 0.00 93 1059.5
20260830045452 20 112 1.6 1.6 0.00 0.46 0.00 93 1059.5
20260830045314 19 135 0.0 0.0 0.00 0.46 0.00 94 1059.5
20260830045226 18 112 0.0 0.0 0.00 0.46 0.00 94 1056.4
20260830045224 16 112 0.0 1.6 0.00 0.46 0.00 94 1031.1
20260830045143 14 157 0.0 0.0 0.00 0.46 0.00 92 1059.5
20260830044952 19 135 0.0 0.0 0.00 0.46 0.00 94 1059.5
20260830044852 19 135 0.0 0.0 0.00 0.46 0.00 94 1065.8
20260830044823 12 135 0.0 3.2 0.00 0.46 0.00 90 1062.7
20260830044452 18 112 0.0 0.0 0.00 0.46 0.00 94 1056.4
20260830044408 12 135 0.0 3.2 0.00 0.46 0.00 90 1065.8
20260830044325 12 157 0.0 1.6 0.00 0.46 0.00 90 1065.8
20260830044150 12 180 0.0 0.0 0.00 0.46 0.00 90 1072.1
20260830044112 12 157 0.0 1.6 0.00 0.46 0.00 90 1043.8
20260830044048 12 157 0.0 4.8 0.00 0.46 0.00 90 1075.3
20260830043952 16 112 0.0 1.6 0.00 0.46 0.00 94 1031.1
20260830043452 14 157 0.0 0.0 0.00 0.46 0.00 92 1059.5
20260830042953 13 157 0.0 1.6 0.00 0.46 0.00 91 1065.8
20260830042452 12 135 0.0 3.2 0.00 0.46 0.00 90 1062.7
20260830041953 12 135 0.0 0.0 0.00 0.46 0.00 90 1056.4
20260830041552 12 135 0.0 0.0 0.00 0.46 0.00 90 1059.5
20260830041453 12 157 0.0 0.0 0.00 0.46 0.00 90 1065.8
20260830040953 12 135 0.0 3.2 0.00 0.46 0.00 90 1065.8
20260830040857 12 157 1.6 3.2 0.00 0.46 0.00 90 1065.8
20260830040526 12 157 1.6 3.2 0.00 0.46 0.00 90 1065.8
20260830040452 12 157 0.0 1.6 0.00 0.46 0.00 90 1065.8
20260830035953 12 180 0.0 3.2 0.00 0.46 0.00 90 1053.2
20260830035453 12 180 3.2 3.2 0.00 0.46 0.00 90 1056.4
20260830035310 12 202 3.2 4.8 0.00 0.46 0.00 90 1062.7
20260830035132 12 202 3.2 4.8 0.00 0.46 0.00 90 1062.7
20260830034952 12 180 0.0 0.0 0.00 0.46 0.00 90 1072.1
20260830034453 12 157 0.0 1.6 0.00 0.46 0.00 90 1043.8
20260830034252 12 180 0.0 4.8 0.00 0.46 0.00 90 1056.4
20260830033953 12 157 0.0 4.8 0.00 0.46 0.00 90 1075.3
20260830033453 12 202 3.2 3.2 0.00 0.46 0.00 90 1062.7
20260830032953 12 157 1.6 3.2 0.00 0.46 0.00 90 1065.8
20260830032453 12 202 3.2 4.8 0.00 0.46 0.00 90 1062.7
20260830032216 12 135 3.2 4.8 0.00 0.46 0.00 90 1069.0
20260830032114 12 135 3.2 4.8 0.00 0.46 0.00 90 1069.0
20260830032029 12 135 3.2 4.8 0.00 0.46 0.00 90 1069.0
20260830031953 12 135 3.2 4.8 0.00 0.46 0.00 90 1069.0
20260830031747 12 180 0.0 3.2 0.00 0.46 0.00 90 1043.8
20260830031711 12 180 0.0 3.2 0.00 0.46 0.00 90 1043.8
20260830031453 12 180 0.0 3.2 0.00 0.46 0.00 90 1043.8
20260830031230 12 202 3.2 3.2 0.00 0.46 0.00 90 1062.7
20260830031149 12 202 3.2 3.2 0.00 0.46 0.00 89 1072.1
20260830030952 12 202 3.2 3.2 0.00 0.46 0.00 90 1062.7
20260830030453 12 202 3.2 3.2 0.00 0.46 0.00 89 1072.1
20260830030026 12 202 1.6 3.2 0.00 0.46 0.00 89 1043.8
20260830025953 12 202 1.6 3.2 0.00 0.46 0.00 89 1043.8
20260830025453 12 202 0.0 3.2 0.00 0.46 0.00 89 1044.8